Precipitable_Water
1.27 1.43 1.44 1.48 1.42 1.34 1.24 1.15 1.12 1.10 1.06 1.00 0.97 0.96 0.99 1.05 0.99 0.94 0.87 0.83 0.76 0.77 0.84 0.82 0.82 1.06 1.14 1.14 1.09 1.04 0.97 0.95 0.91 0.79 0.73 0.72 0.74 0.83 0.84 0.84 0.81 0.87 0.85
1.30 1.46 1.42 1.42 1.40 1.36 1.24 1.08 0.99 0.96 0.89 0.86 0.82 0.84 0.92 0.96 0.91 0.88 0.83 0.76 0.72 0.77 0.93 0.98 0.96 1.09 1.13 1.11 1.04 0.96 0.91 0.87 0.84 0.78 0.72 0.67 0.66 0.76 0.81 0.88 0.85 0.93 1.02
1.30 1.43 1.39 1.39 1.41 1.34 1.23 1.13 0.98 0.91 0.84 0.80 0.78 0.77 0.82 0.82 0.83 0.80 0.78 0.77 0.74 0.76 0.84 0.95 0.96 1.05 1.05 1.02 0.98 0.95 0.91 0.90 0.86 0.87 0.77 0.72 0.75 0.78 0.84 0.91 0.89 0.90 1.04
1.33 1.36 1.34 1.41 1.42 1.33 1.27 1.18 1.09 1.01 0.91 0.81 0.80 0.82 0.82 0.81 0.80 0.79 0.77 0.75 0.77 0.76 0.77 0.85 0.90 0.96 0.98 0.97 0.93 0.90 0.89 0.91 0.88 0.83 0.78 0.73 0.79 0.82 0.91 0.92 0.97 0.92 0.94
1.30 1.29 1.33 1.43 1.42 1.36 1.31 1.25 1.19 1.09 1.01 0.95 0.93 0.92 0.89 0.85 0.82 0.79 0.76 0.74 0.72 0.72 0.72 0.77 0.83 0.86 0.91 0.91 0.88 0.86 0.86 0.86 0.84 0.79 0.73 0.72 0.71 0.75 0.82 0.99 0.99 0.97 0.98
1.29 1.28 1.33 1.42 1.42 1.39 1.33 1.30 1.25 1.15 1.03 1.04 1.05 1.07 1.05 0.95 0.86 0.81 0.76 0.69 0.68 0.67 0.69 0.68 0.69 0.75 0.77 0.77 0.72 0.69 0.74 0.79 0.78 0.69 0.64 0.63 0.67 0.72 0.79 0.85 0.85 0.91 0.96
1.29 1.29 1.33 1.40 1.41 1.41 1.37 1.33 1.27 1.15 1.04 1.04 1.11 1.16 1.20 1.10 1.02 0.95 0.83 0.79 0.75 0.70 0.71 0.73 0.73 0.74 0.76 0.80 0.83 0.82 0.82 0.82 0.82 0.82 0.82 0.78 0.70 0.66 0.78 0.90 0.94 0.92 0.97
1.28 1.34 1.36 1.39 1.41 1.44 1.40 1.36 1.27 1.16 1.07 1.03 1.13 1.19 1.18 1.18 1.09 1.05 0.97 0.94 0.90 0.87 0.86 0.85 0.88 0.90 0.92 0.95 0.98 1.02 1.00 1.02 1.02 1.00 0.99 0.96 0.92 0.89 0.84 0.90 0.94 1.02 0.96
1.35 1.36 1.38 1.38 1.40 1.42 1.42 1.36 1.29 1.21 1.11 1.06 1.09 1.14 1.16 1.14 1.11 1.06 1.00 0.99 0.98 0.97 0.99 0.98 0.97 0.97 0.98 1.00 1.01 1.01 1.03 1.06 1.06 1.06 1.05 1.05 1.06 1.07 1.08 1.05 1.07 1.08 1.12
1.33 1.38 1.39 1.39 1.38 1.41 1.41 1.37 1.32 1.22 1.15 1.09 1.09 1.07 1.04 1.05 1.09 1.04 1.02 1.01 1.01 1.02 1.01 0.99 0.98 0.98 1.00 1.03 1.05 1.06 1.08 1.11 1.10 1.10 1.11 1.11 1.12 1.11 1.12 1.12 1.12 1.12 1.12
1.29 1.33 1.38 1.36 1.31 1.36 1.40 1.37 1.35 1.26 1.20 1.15 1.08 1.05 1.01 1.01 1.05 1.06 1.07 1.07 1.06 1.07 1.07 1.06 1.06 1.08 1.10 1.14 1.17 1.19 1.19 1.18 1.17 1.15 1.16 1.16 1.17 1.18 1.21 1.23 1.22 1.22 1.23
1.11 1.21 1.32 1.32 1.28 1.33 1.39 1.39 1.37 1.37 1.29 1.20 1.13 1.11 1.06 1.05 1.07 1.07 1.06 1.05 1.08 1.09 1.09 1.10 1.14 1.18 1.19 1.19 1.19 1.19 1.17 1.16 1.14 1.12 1.12 1.13 1.15 1.17 1.21 1.26 1.32 1.35 1.34
1.00 1.15 1.28 1.34 1.34 1.35 1.36 1.40 1.41 1.39 1.33 1.27 1.25 1.21 1.17 1.13 1.11 1.08 1.07 1.06 1.07 1.13 1.14 1.17 1.18 1.17 1.17 1.17 1.17 1.17 1.15 1.12 1.09 1.09 1.09 1.01 1.00 1.05 1.08 1.07 1.14 1.22 1.25
0.93 1.05 1.19 1.32 1.37 1.41 1.42 1.43 1.44 1.38 1.37 1.33 1.34 1.31 1.23 1.18 1.14 1.10 1.07 1.07 1.09 1.16 1.17 1.21 1.22 1.21 1.18 1.13 1.08 1.01 0.98 0.96 0.93 0.90 0.87 0.86 0.88 0.90 0.93 0.97 1.00 1.02 1.04
0.84 0.95 1.09 1.27 1.33 1.40 1.43 1.49 1.49 1.43 1.41 1.41 1.40 1.40 1.34 1.26 1.19 1.13 1.11 1.14 1.16 1.20 1.22 1.19 1.13 1.06 1.04 1.01 0.93 0.86 0.84 0.81 0.74 0.69 0.71 0.72 0.71 0.75 0.79 0.80 0.80 0.80 0.84
0.64 0.76 0.97 1.15 1.32 1.42 1.43 1.48 1.49 1.49 1.47 1.46 1.44 1.43 1.43 1.35 1.24 1.24 1.19 1.13 1.09 1.09 1.09 1.07 1.07 1.00 0.92 0.81 0.75 0.70 0.60 0.58 0.55 0.58 0.58 0.52 0.55 0.54 0.56 0.62 0.60 0.63 0.67
0.70 0.68 0.83 0.99 1.23 1.37 1.45 1.51 1.52 1.50 1.50 1.46 1.39 1.38 1.36 1.34 1.29 1.20 1.13 1.10 1.07 1.07 1.05 1.02 0.93 0.79 0.69 0.62 0.55 0.54 0.53 0.50 0.47 0.50 0.41 0.40 0.43 0.42 0.42 0.47 0.52 0.54 0.59
0.77 0.67 0.73 0.93 1.09 1.29 1.44 1.53 1.54 1.48 1.45 1.40 1.34 1.36 1.35 1.27 1.22 1.16 1.10 1.07 1.04 1.03 0.98 0.78 0.62 0.56 0.56 0.54 0.52 0.50 0.46 0.39 0.40 0.40 0.37 0.41 0.42 0.40 0.40 0.44 0.43 0.43 0.46
0.80 0.80 0.73 0.88 1.03 1.20 1.40 1.49 1.44 1.39 1.37 1.34 1.32 1.33 1.28 1.23 1.18 1.13 1.06 1.02 0.97 0.74 0.62 0.60 0.57 0.56 0.52 0.49 0.44 0.39 0.33 0.31 0.36 0.34 0.31 0.34 0.36 0.35 0.35 0.35 0.35 0.35 0.36
0.77 0.83 0.78 0.85 1.02 1.21 1.31 1.34 1.32 1.27 1.30 1.33 1.31 1.30 1.25 1.18 1.10 1.01 0.92 0.71 0.60 0.59 0.57 0.55 0.52 0.49 0.47 0.37 0.31 0.27 0.28 0.29 0.35 0.30 0.29 0.33 0.33 0.29 0.29 0.28 0.26 0.26 0.27
0.77 0.79 0.80 0.82 0.97 1.13 1.19 1.16 1.18 1.12 1.19 1.25 1.26 1.22 1.14 1.04 0.95 0.79 0.62 0.57 0.58 0.57 0.55 0.52 0.46 0.38 0.32 0.29 0.25 0.25 0.26 0.30 0.30 0.30 0.31 0.30 0.27 0.25 0.26 0.24 0.24 0.24 0.24
0.76 0.82 0.82 0.81 0.91 1.02 1.10 1.12 1.14 1.13 1.17 1.18 1.14 1.04 0.94 0.88 0.74 0.61 0.59 0.59 0.58 0.57 0.53 0.45 0.35 0.27 0.26 0.28 0.25 0.27 0.22 0.23 0.29 0.27 0.24 0.28 0.26 0.26 0.25 0.22 0.23 0.23 0.23
0.75 0.84 0.85 0.79 0.86 0.95 1.02 1.09 1.12 1.10 1.07 1.05 1.01 0.92 0.85 0.73 0.61 0.61 0.61 0.61 0.58 0.53 0.43 0.34 0.27 0.25 0.25 0.28 0.29 0.24 0.20 0.19 0.22 0.26 0.25 0.28 0.25 0.24 0.21 0.21 0.20 0.21 0.22
0.78 0.90 0.91 0.81 0.82 0.89 0.97 1.00 1.00 0.98 0.95 0.91 0.83 0.81 0.71 0.60 0.61 0.62 0.61 0.58 0.53 0.46 0.35 0.28 0.27 0.28 0.28 0.25 0.25 0.26 0.26 0.25 0.20 0.19 0.24 0.22 0.22 0.19 0.19 0.19 0.19 0.20 0.19
0.84 0.90 0.94 0.84 0.83 0.87 0.92 0.97 0.96 0.93 0.88 0.83 0.77 0.66 0.59 0.61 0.62 0.61 0.59 0.55 0.50 0.41 0.30 0.27 0.28 0.27 0.27 0.24 0.24 0.24 0.24 0.23 0.23 0.21 0.16 0.17 0.17 0.17 0.17 0.19 0.18 0.18 0.19
0.86 0.93 0.96 0.87 0.86 0.91 0.94 0.93 0.91 0.84 0.75 0.67 0.61 0.59 0.60 0.61 0.61 0.58 0.56 0.53 0.49 0.36 0.29 0.29 0.28 0.26 0.25 0.25 0.25 0.24 0.23 0.21 0.20 0.18 0.16 0.15 0.15 0.16 0.18 0.17 0.18 0.18 0.19
Wind_Speed
8 7 6 6 5 4 4 4 5 6 6 7 8 8 9 9 9 9 9 9 9 9 10 11 10 10 10 10 10 11 11 12 13 12 12 13 13 12 12 12 11 11 10
8 8 7 6 5 4 4 4 4 5 6 6 6 6 6 6 7 7 8 8 8 9 8 8 9 9 10 11 12 12 13 13 12 13 13 13 13 13 13 13 12 12 12
9 9 7 7 6 5 4 4 4 5 5 6 6 6 6 6 6 7 7 8 8 8 9 8 9 9 10 11 12 13 14 14 15 15 15 15 14 15 16 15 14 14 13
10 10 9 8 7 6 5 5 4 4 5 5 5 5 5 5 6 6 7 7 8 8 9 9 9 10 11 12 13 14 15 15 16 16 16 16 17 17 16 17 16 16 16
12 11 10 10 8 7 6 5 5 5 5 5 4 4 4 4 5 6 7 7 8 9 9 10 11 12 12 13 14 15 16 16 17 18 18 18 18 18 18 18 18 18 18
13 12 11 11 10 9 7 6 6 5 5 5 5 5 5 5 6 6 7 8 8 9 10 11 11 12 13 14 15 16 16 17 17 18 18 18 19 19 19 19 20 20 20
14 13 13 12 11 10 9 8 6 6 5 5 5 6 6 7 7 7 7 8 8 8 9 10 11 12 13 14 15 15 16 16 17 17 18 18 18 19 20 20 20 21 22
15 14 14 13 12 12 10 9 8 7 6 6 7 7 7 7 8 8 8 9 9 9 10 10 11 12 13 13 14 15 16 17 18 18 19 19 19 20 20 21 22 23 24
15 15 14 14 13 13 12 10 9 8 7 7 7 7 7 8 8 8 9 9 10 11 11 12 13 13 14 15 16 16 17 18 19 20 20 21 21 21 22 23 24 25 25
16 16 15 15 14 14 13 12 11 9 9 8 8 8 7 8 7 8 9 9 10 11 12 13 13 14 15 16 17 18 19 20 20 21 22 22 23 24 24 25 26 26 27
18 18 17 16 16 16 15 14 12 11 10 10 9 9 9 8 8 8 9 10 11 11 12 13 14 15 16 17 18 19 20 21 22 23 24 25 26 26 27 27 27 28 28
18 18 18 18 17 17 16 15 14 13 12 11 10 10 9 9 9 10 11 11 12 12 13 13 14 15 16 17 18 19 21 22 23 23 24 25 26 26 27 28 29 29 30
19 19 19 18 18 18 17 16 15 14 13 12 12 11 11 10 11 11 12 13 14 14 15 15 16 16 17 18 20 21 21 22 22 23 24 25 25 26 26 27 27 27 28
21 21 20 19 18 18 17 16 15 14 13 13 13 13 12 12 13 13 14 15 16 17 17 17 18 18 18 19 20 21 22 23 24 25 26 26 27 27 27 28 28 29 29
23 24 24 22 21 19 18 17 16 16 15 14 14 14 14 14 14 15 16 16 17 18 18 18 19 20 20 22 23 23 24 25 26 27 27 28 28 28 29 29 30 30 30
24 25 25 25 23 22 21 19 18 17 16 16 15 15 15 15 15 15 15 16 17 17 19 20 21 22 23 23 24 25 26 27 28 29 29 29 29 29 29 29 30 30 31
24 25 26 26 26 24 23 21 19 18 17 17 16 15 14 14 14 15 16 16 17 17 18 19 21 22 24 25 26 27 28 30 30 30 30 30 29 29 30 30 30 31 31
24 23 25 26 27 26 24 22 20 19 18 17 15 14 14 14 15 16 17 17 17 18 19 20 21 22 24 26 28 29 30 31 30 29 30 29 29 29 30 31 32 33 34
24 22 23 25 26 26 24 22 20 19 18 16 15 15 15 15 16 17 17 17 17 18 20 21 23 25 27 29 30 30 31 31 29 29 29 30 30 31 32 33 35 36 37
24 22 21 23 25 25 24 22 20 18 17 16 15 15 15 15 16 16 16 16 17 19 22 24 26 27 28 30 30 31 31 29 28 29 30 30 30 34 34 35 37 39 40
23 22 20 20 22 24 24 23 21 18 17 16 15 15 15 15 15 15 15 17 19 21 24 26 27 29 29 30 30 31 29 28 30 28 30 33 34 36 37 39 40 42 43
23 21 20 20 21 23 25 23 21 19 17 16 15 14 14 14 14 15 16 19 21 24 26 27 28 29 29 29 30 29 29 30 28 32 35 34 37 38 39 42 43 44 45
23 22 20 20 20 21 23 22 20 18 17 17 16 15 15 14 14 16 18 21 23 25 27 28 28 28 29 30 31 30 32 31 36 33 36 36 40 40 43 44 46 47 48
24 22 20 19 19 20 21 22 21 20 18 17 15 14 14 14 16 18 20 23 25 27 28 28 29 29 30 31 33 33 34 37 37 39 37 42 40 45 46 47 48 50 53
24 22 20 18 18 19 20 20 19 17 16 15 14 13 14 15 17 20 22 24 26 28 29 29 30 31 32 33 34 36 37 39 39 41 46 45 47 48 50 50 53 54 55
23 22 20 19 18 18 19 18 18 17 16 14 14 14 15 17 19 22 24 26 28 29 29 30 32 33 34 35 37 38 39 39 41 43 47 51 53 54 54 56 55 57 58
Wind_Direction
239 228 225 230 238 255 264 265 270 277 283 287 288 285 278 274 271 271 270 272 275 275 274 271 265 258 249 249 255 267 277 279 281 286 282 281 278 277 278 282 283 287 285
228 226 228 235 244 247 262 267 276 282 289 292 294 291 282 273 275 271 269 273 275 275 277 274 260 257 252 257 261 271 275 281 280 285 283 281 278 275 275 278 279 280 282
225 227 233 236 240 248 256 267 283 288 291 293 294 289 283 278 276 272 272 275 276 277 274 272 264 263 260 264 268 274 277 278 279 285 283 280 277 278 276 272 275 276 281
231 231 234 233 235 246 253 265 283 292 296 296 294 297 288 282 281 275 277 278 278 279 277 272 267 267 266 268 272 278 280 280 281 284 283 279 278 278 280 271 273 274 275
233 231 232 232 236 241 248 259 277 290 291 292 293 299 294 290 287 284 282 283 282 282 278 275 271 271 271 273 277 280 281 282 284 284 283 281 278 278 278 273 272 274 274
233 232 233 232 236 240 246 256 273 285 288 285 285 288 292 293 291 292 287 287 285 284 281 278 277 274 275 277 280 281 284 284 286 286 284 282 279 278 277 276 274 273 274
234 234 234 234 237 239 243 253 267 278 284 281 280 286 291 286 288 289 287 289 290 289 285 283 281 280 279 281 282 283 285 286 288 288 287 285 282 281 277 277 277 276 275
233 233 235 235 238 238 242 251 260 272 279 281 276 284 291 282 284 286 285 287 288 288 287 287 286 285 284 285 286 286 285 287 288 288 288 286 285 283 280 277 278 277 276
234 234 235 238 239 239 243 248 255 264 274 278 279 283 289 286 285 284 287 288 288 287 286 286 285 285 286 287 288 287 288 289 289 289 288 287 285 284 282 280 279 278 278
235 235 237 239 240 242 244 247 252 259 265 272 274 280 285 288 285 287 291 290 291 291 290 289 288 288 288 288 289 290 290 290 289 289 288 287 287 285 283 282 281 279 279
239 238 239 241 244 244 244 246 249 254 259 266 269 271 279 282 285 290 293 293 293 293 292 292 291 291 291 292 292 292 292 291 291 290 289 288 287 285 284 283 283 281 279
239 238 240 242 245 243 242 245 248 251 256 261 265 268 273 277 283 289 292 292 293 295 296 294 294 293 294 295 295 296 295 295 294 293 292 291 290 289 287 285 283 282 281
242 241 240 243 244 242 242 244 246 250 255 258 261 263 268 275 283 288 291 291 291 292 294 295 296 295 295 296 297 297 298 298 297 296 295 294 293 291 289 289 287 286 285
244 243 242 242 242 241 241 242 245 250 253 257 258 260 267 275 282 287 291 292 291 290 291 293 294 295 296 297 299 298 299 298 298 298 297 295 294 292 291 290 289 287 286
247 245 244 242 242 241 241 243 246 250 252 256 258 261 266 274 281 286 291 293 292 291 290 291 292 293 295 297 297 298 298 298 299 298 297 296 294 293 292 291 290 289 287
250 247 243 241 241 240 241 244 247 250 251 255 259 262 267 274 279 285 291 294 296 295 292 293 292 292 294 296 297 298 298 298 298 298 297 296 295 294 293 292 291 290 289
252 248 243 240 240 240 241 244 247 249 251 255 260 260 264 270 278 286 289 293 296 299 299 300 298 293 294 296 297 297 297 297 297 296 296 296 295 295 294 294 292 291 290
248 248 245 241 238 237 239 242 244 248 251 253 254 256 262 272 282 286 290 292 294 297 300 301 303 302 300 300 300 299 297 297 296 295 296 296 296 295 295 294 293 293 291
245 248 247 241 237 234 235 237 240 244 247 247 248 253 263 274 282 287 290 293 294 298 300 302 303 303 302 302 301 300 299 297 295 295 296 296 296 296 296 295 294 293 292
242 245 247 242 235 230 230 232 237 242 243 244 246 254 266 276 283 288 290 293 297 300 303 304 304 305 304 305 303 302 301 298 295 296 298 297 296 297 297 296 295 294 293
240 241 243 238 232 227 227 230 234 238 237 240 248 258 268 277 284 287 290 295 300 303 305 307 306 306 305 308 305 305 303 299 297 296 300 298 298 299 298 297 297 295 294
237 238 239 236 232 229 227 228 231 232 235 240 249 259 268 276 281 286 293 298 303 305 307 308 309 307 307 309 307 305 303 302 299 299 299 299 299 300 299 299 298 297 295
234 235 235 234 231 227 222 222 225 228 234 241 250 260 269 274 282 290 296 300 304 306 308 309 309 309 308 309 309 308 305 301 302 299 299 299 301 300 300 300 299 298 296
231 230 231 230 225 221 219 220 223 230 237 244 247 257 265 275 285 293 299 303 305 307 309 309 309 309 309 308 308 307 305 303 303 301 300 301 300 301 301 300 299 298 297
225 224 225 223 220 217 217 218 223 228 231 237 244 253 266 279 290 297 301 304 307 308 309 309 309 310 309 308 308 307 306 305 303 302 302 302 302 302 301 301 300 299 298
221 219 218 217 216 216 217 220 220 221 226 232 243 257 272 283 292 299 303 305 307 308 309 309 309 310 309 309 308 308 306 306 305 304 303 304 303 304 303 302 301 301 299